EW1782 Weather Reports


time (UTC)temp
F
wind
direction
speed
knots
gust
knots
rain 1hr
in
rain 24hr
in
rain mn
in
humidity
%
barometer
mb
20260504081541 60 245 3.5 12.2 0.00 0.00 0.00 47 992.0
20260504044658 60 150 2.6 12.2 0.00 0.00 0.00 39 995.4
20260504043113 60 190 5.2 12.2 0.00 0.00 0.00 40 995.6
20260504041554 60 169 4.3 10.4 0.00 0.00 0.00 41 995.9
20260504040042 60 217 4.3 11.3 0.00 0.00 0.00 43 996.3
20260504034542 60 207 4.3 9.6 0.00 0.00 0.00 43 996.6
20260504033032 60 236 4.3 9.6 0.00 0.00 0.00 43 997.0
20260504031529 60 201 4.3 11.3 0.00 0.00 0.00 42 997.5
20260504030029 61 187 4.3 10.4 0.00 0.00 0.00 41 997.7
20260504024522 61 248 4.3 7.8 0.00 0.00 0.00 40 998.0
20260504023019 62 231 2.6 7.0 0.00 0.00 0.00 39 998.2
20260504021516 62 211 1.7 8.7 0.00 0.00 0.00 39 998.4
20260504020002 63 266 1.7 7.8 0.00 0.00 0.00 38 998.7
20260504014607 63 235 1.7 6.1 0.00 0.00 0.00 38 999.1
20260504013056 64 162 1.7 6.1 0.00 0.00 0.00 36 999.3
20260504011552 65 261 1.7 5.2 0.00 0.00 0.00 35 999.6
20260504010056 65 221 0.9 5.2 0.00 0.00 0.00 34 999.9
20260504004547 66 231 0.9 7.0 0.00 0.00 0.00 34 1000.1
20260504003043 66 162 0.9 7.8 0.00 0.00 0.00 33 1000.3
20260504001541 67 243 4.3 7.8 0.00 0.00 0.00 32 1000.5
20260504000021 67 302 1.7 7.8 0.00 0.00 0.00 31 1000.7
20260503234521 67 295 2.6 7.0 0.00 0.00 0.00 31 1000.9
20260503233110 68 309 1.7 7.0 0.00 0.00 0.00 30 1001.2
20260503231558 68 297 2.6 8.7 0.00 0.00 0.00 29 1001.5
20260503230103 68 297 3.5 7.8 0.00 0.00 0.00 28 1001.8
20260503224545 68 117 1.7 8.7 0.00 0.00 0.00 29 1002.0
20260503223100 68 295 2.6 7.8 0.00 0.00 0.00 28 1002.1
20260503221547 67 266 1.7 7.8 0.00 0.00 0.00 28 1002.3
20260503220039 68 295 3.5 7.0 0.00 0.00 0.00 28 1002.3
20260503214547 67 293 2.6 7.8 0.00 0.00 0.00 30 1002.5
20260503213035 66 70 3.5 7.8 0.00 0.00 0.00 29 1002.6
20260503211530 66 291 3.5 8.7 0.00 0.00 0.00 30 1003.0
20260503210018 66 295 3.5 9.6 0.00 0.00 0.00 30 1003.6
20260503204524 66 307 1.7 9.6 0.00 0.00 0.00 32 1003.9
20260503203014 66 323 4.3 8.7 0.00 0.00 0.00 31 1004.1
20260503201510 65 330 5.2 8.7 0.00 0.00 0.00 31 1004.4
20260503200008 65 266 1.7 7.8 0.00 0.00 0.00 33 1004.6
20260503194507 64 166 2.6 10.4 0.00 0.00 0.00 33 1004.9
20260503193007 64 352 2.6 9.6 0.00 0.00 0.00 33 1005.0
20260503191504 63 308 4.3 7.8 0.00 0.00 0.00 32 1005.3
20260503190050 63 312 1.7 5.2 0.00 0.00 0.00 33 1005.4
20260503184548 62 322 3.5 7.8 0.00 0.00 0.00 34 1005.7
20260503183054 62 22 5.2 8.7 0.00 0.00 0.00 32 1006.1
20260503181558 62 343 0.9 7.0 0.00 0.00 0.00 35 1006.2
20260503180050 61 320 2.6 8.7 0.00 0.00 0.00 34 1006.4
20260503174552 61 6 3.5 10.4 0.00 0.00 0.00 34 1006.8
20260503173044 61 321 3.5 8.7 0.00 0.00 0.00 35 1006.9
20260503171543 60 315 2.6 9.6 0.00 0.00 0.00 35 1006.9